Simultaneous Nadir Overpasses (SNOs) Predictions

Prediction of SNOs between LANDSAT-8 and METOP-B Satellite Orbit:

Table of predicted SNOs for the next 14.0 days since TLE Epoch: 11/10/2014
Index Date (LANDSAT-8) Time (LANDSAT-8) Lat,Lon (LANDSAT-8) SZA (LANDSAT-8 ) Date (METOP-B) Time (METOP-B) Lat,Lon (METOP-B) SZA (METOP-B ) Distance(km) Time Diff (sec)
1 11/11/2014 16:17:02 -81.05, 154.48 79.19 11/11/2014 16:16:24 -81.05, 154.50 79.20 0.55 38
2 11/11/2014 17:06:27 81.08, -37.46 100.89 11/11/2014 17:07:03 81.08, -37.46 100.91 0.08 36
3 11/14/2014 11:51:15 -81.06,-138.83 78.41 11/14/2014 11:50:48 -81.06,-138.74 78.41 1.59 27
4 11/14/2014 12:40:40 81.09, 29.22 101.67 11/14/2014 12:41:27 81.09, 29.25 101.69 0.79 47
5 11/17/2014 07:25:29 -81.07, -72.37 77.72 11/17/2014 07:25:14 -81.06, -72.42 77.73 1.12 15
6
